This is the latest recevied weather packets stored in our database for station/object SP9KB-13. If no packets are shown the sender has not sent any weather packets the latest 10 day(s).
| Time | Temp. | Humidity | Pressure | Rain* | Wind** | Luminosity | Snow |
|---|---|---|---|---|---|---|---|
| 1777576079 | 1.11° C | 72% | 1007.5 hPa | 0 mm | - | - | - |
| 1777575778 | 1.11° C | 71% | 1007.4 hPa | 0 mm | - | - | - |
| 1777575477 | 1.11° C | 71% | 1007.4 hPa | 0 mm | - | - | - |
| 1777575177 | 1.67° C | 70% | 1007.3 hPa | 0 mm | - | - | - |
| 1777574876 | 1.67° C | 69% | 1007.4 hPa | 0 mm | - | - | - |
| 1777574576 | 1.67° C | 69% | 1007.4 hPa | 0 mm | - | - | - |
| 1777574275 | 2.22° C | 67% | 1007.4 hPa | 0 mm | - | - | - |
| 1777573975 | 2.22° C | 67% | 1007.4 hPa | 0 mm | - | - | - |
| 1777573674 | 2.22° C | 66% | 1007.4 hPa | 0 mm | - | - | - |
| 1777573373 | 2.22° C | 67% | 1007.3 hPa | 0 mm | - | - | - |
| 1777573073 | 2.78° C | 66% | 1007.3 hPa | 0 mm | - | - | - |
| 1777572772 | 2.78° C | 64% | 1007.2 hPa | 0 mm | - | - | - |
| 1777572472 | 3.89° C | 62% | 1007.3 hPa | 0 mm | - | - | - |
| 1777572171 | 3.89° C | 60% | 1007.2 hPa | 0 mm | - | - | - |
| 1777571870 | 3.89° C | 59% | 1007.2 hPa | 0 mm | - | - | - |
| 1777571570 | 4.44° C | 59% | 1007 hPa | 0 mm | - | - | - |
| 1777571269 | 4.44° C | 57% | 1006.9 hPa | 0 mm | - | - | - |
| 1777570969 | 4.44° C | 58% | 1007.1 hPa | 0 mm | - | - | - |
| 1777570668 | 5° C | 57% | 1007.1 hPa | 0 mm | - | - | - |
| 1777570367 | 5.56° C | 55% | 1007 hPa | 0 mm | - | - | - |
| 1777570067 | 5.56° C | 53% | 1007 hPa | 0 mm | - | - | - |
| 1777569766 | 6.67° C | 51% | 1007 hPa | 0 mm | - | - | - |
| 1777569466 | 7.22° C | 43% | 1006.9 hPa | 0 mm | - | - | - |
| 1777569165 | 7.22° C | 45% | 1006.8 hPa | 0 mm | - | - | - |
| 1777568864 | 8.33° C | 42% | 1006.9 hPa | 0 mm | - | - | - |
* Rain latest hour (hover to see other rain measurements)
** Current wind speed in m/s (hover to see current wind gust speed)